Location: Winthrop
(48.4780°N, 120.1850°W)
Time: 06:35:56
(UTC-08:00)

Courier 1B - All Passes

Search period start: 27 January 2023 00:00
Search period end: 06 February 2023 00:00
Orbit: 963 x 1209 km, 28.3° (Epoch: 27 January)

Date Brightness Start Highest point End Pass type
(mag) Time Alt. Az. Time Alt. Az. Time Alt. Az.
27 Jan - 16:57:56 10° SSW 17:00:23 12° S 17:02:51 10° SSE daylight
28 Jan - 16:04:50 10° SSW 16:06:58 12° S 16:09:07 10° SSE daylight
28 Jan - 17:58:30 10° SSW 17:59:32 10° S 18:00:35 10° S visible
29 Jan - 15:12:04 10° S 15:13:34 11° S 15:15:04 10° SSE daylight
29 Jan - 17:04:18 10° SSW 17:06:07 11° S 17:07:57 10° S daylight
30 Jan - 16:10:36 10° SSW 16:12:43 12° S 16:14:49 10° SSE daylight
31 Jan - 15:17:10 10° SSW 15:19:19 12° S 15:21:27 10° SSE daylight
01 Feb - 14:23:57 10° SSW 14:25:54 11° S 14:27:51 10° SSE daylight
01 Feb - 16:18:06 10° SSW 16:18:27 10° S 16:18:47 10° S daylight
02 Feb - 13:31:04 10° S 13:32:30 11° S 13:33:55 10° SSE daylight
02 Feb - 15:23:22 10° SSW 15:25:03 11° S 15:26:44 10° S daylight
03 Feb - 14:29:30 10° SSW 14:31:39 12° S 14:33:47 10° SSE daylight
04 Feb - 13:35:55 10° SSW 13:38:15 12° S 13:40:33 10° SSE daylight
05 Feb - 12:42:32 10° SSW 12:44:49 12° S 12:47:05 10° SSE daylight
05 Feb - 14:36:17 10° SSW 14:37:23 10° S 14:38:28 10° S daylight
